Regional Weather Roundup
Issued by NWS Goodland, KS

Home | Current Version | Previous Version | Graphics & Text | Print | Product List | Glossary Off
Versions: 1 2 3 4 5 6 7 8 9 10 11 12 13 14 15 16 17 18 19 20 21 22 23 24 25 26 27 28 29 30 31 32 33 34 35 36 37 38 39 40 41 42 43 44 45 46 47 48 49 50

000
ASUS43 KGLD 301308
RWRGLD

GOODLAND FORECAST AREA HOURLY WEATHER ROUNDUP
NATIONAL WEATHER SERVICE GOODLAND KS
700 AM MDT SAT APR 30 2016

...OFFICIAL OBSERVATIONS...

CITY           SKY/WX    TMP DP  RH WIND       PRES   REMARKS
GOODLAND KS    FOG       32  32 100 N14       29.79R VSB 1
HILL CITY KS   CLOUDY    41  39  93 NW16      29.75R
IMPERIAL NEB   CLOUDY    33  32  96 N14       29.82R
MCCOOK NEB     CLOUDY    36  34  92 N13       29.78S
AKRON CO       SNOW      30  29  96 N20       29.84R VSB 1/2 WCI  17
BURLINGTON CO  CLOUDY    33  30  88 N16       29.81R FOG
LIMON CO       LGT SNOW  29  28  96 NW20      29.84R FOG     WCI  16
$$

...UNOFFICIAL OBSERVATIONS...

CITY           SKY/WX    TMP DP  RH WIND       PRES   REMARKS
COLBY KS       CLOUDY    36  36 100 NW12      29.79S
GOVE KS          N/A     38  32  79 MISG        N/A
LENORA KS        N/A     38  32  79 MISG        N/A
NORTON KS      CLOUDY    37  36  93 NW16      29.75R FOG
SHARON SPRINGS   N/A     34  32  93 NW13G20     N/A
KIT CARSON CO    N/A     33  31  94 MISG        N/A
YUMA CO          N/A     32  31  96 CALM        N/A
$$




USA.gov is the U.S. government's official web portal to all federal, state and local government web resources and services.